[ hide orbit diagram ]
For accurate long-term ephemerides, please instead use our Horizons system.This orbit viewer was implemented using two-body methods, and hence should not be used for determining accurate long-term trajectories (over several years or decades) or planetary encounter circumstances.
Orbital Elements at Epoch 2459200.5 (2020-Dec-17.0) TDB
Reference: JPL 23 (heliocentric ecliptic J2000)
Element | Value | Uncertainty (1-sigma) | Units |
e | .07150614784907937 | 5.7823e-08 | |
a | 3.007766475847171 | 4.2548e-08 | au |
q | 2.792692681529739 | 1.8513e-07 | au |
i | 3.839316409554499 | 5.5349e-06 | deg |
node | 50.05739151720428 | 9.846e-05 | deg |
peri | 106.6404674949508 | 0.00010673 | deg |
M | 25.10929910962431 | 4.4506e-05 | deg |
tp | 2459067.608657764338 (2020-Aug-06.10865776) | 0.00023442 | TDB |
period | 1905.305400838571 5.22 | 4.0428e-05 1.107e-07 | d yr |
n | .1889460869850866 | 4.0092e-09 | deg/d |
Q | 3.222840270164603 | 4.559e-08 | au |
|
| | Orbit Determination Parameters
Additional Information
|
[ show covariance matrix ]
Physical Parameter Table
Parameter |
Symbol |
Value |
Units |
Sigma |
Reference |
Notes |
absolute magnitude |
H |
16.39 |
|
n/a |
E2021B25 |
|
|
469064 (2015 BB6) Discovered 2010-May-16 by WISE at WISE |
Reference: | Last Updated: 2016-06-21 |
|
[ show close-approach data ]
Alternate Designations
2015 BB6 = 2010 KS12 = 2011 KE18 |
|
|